Regional Weather Roundup
Issued by NWS

Home | Current Version | Previous Version | Graphics & Text | Print | Product List | Glossary On
Versions: 1 2 3 4 5 6 7 8 9 10 11 12 13 14 15 16 17 18 19 20 21 22 23 24 25 26 27 28 29 30 31 32 33 34 35 36 37 38 39 40 41 42 43 44 45 46 47 48 49 50
000
ASUS43 KLOT 291203
RWRIL

ILLINOIS REGIONAL WEATHER ROUNDUP
NATIONAL WEATHER SERVICE CHICAGO/ROMEOVILLE IL
700 AM CDT MON AUG 29 2016

NOTE: "FAIR" INDICATES FEW OR NO CLOUDS BELOW 12,000 FEET WITH NO
SIGNIFICANT WEATHER AND/OR OBSTRUCTIONS TO VISIBILITY.

* THESE STATIONS ARE NOT UNDER NWS QUALITY CONTROL. THEY ALSO MAY NOT
  REPORT WEATHER SUCH AS PRECIPITATION OR FOG.

ILZ001-002-007-009-015-016-024-291300-
NORTHWEST ILLINOIS

CITY           SKY/WX    TMP DP  RH WIND       PRES   REMARKS
MOLINE         FOG       70  68  93 E5        30.20R VSB 1/2
6HR MIN TEMP:  69; 6HR MAX TEMP:  72;

STERLING*      CLEAR     69  68  96 E6        30.22S FOG
$$

ILZ003-004-008-010-011-017-018-291300-
NORTH CENTRAL ILLINOIS

CITY           SKY/WX    TMP DP  RH WIND       PRES   REMARKS
ROCKFORD       CLOUDY    69  67  93 NE3       30.24R
6HR MIN TEMP:  68; 6HR MAX TEMP:  72;

FREEPORT*      CLOUDY    65  65 100 CALM      30.25R FOG
ROCHELLE*      CLEAR     67  66  97 CALM      30.23S FOG
$$

ILZ005-006-012>014-019>023-291300-
NORTHEAST ILLINOIS

CITY           SKY/WX    TMP DP  RH WIND       PRES   REMARKS
CHICAGO-OHARE  PTCLDY    72  69  90 NE6       30.23R
6HR MIN TEMP:  70; 6HR MAX TEMP:  73;

CHICAGO-MIDWAY PTCLDY    74  67  78 N6        30.22R
6HR MIN TEMP:  73; 6HR MAX TEMP:  75;

AURORA         CLEAR     70  68  93 NE3       30.23R FOG
6HR MIN TEMP:  68; 6HR MAX TEMP:  70;

LANSING*       CLEAR     69  69 100 CALM      30.23R FOG
JOLIET*        CLEAR     71  70  95 N6        30.22R
WAUKEGAN       CLEAR     68  67  96 N3        30.23S
6HR MIN TEMP:  65; 6HR MAX TEMP:  69;

DUPAGE AIRPORT CLEAR     70  67  90 NE5       30.23R
6HR MIN TEMP:  66; 6HR MAX TEMP:  70;

KANKAKEE*      CLEAR     69  68  97 E5        30.22R
WHEELING       CLEAR     70  68  93 CALM      30.24R
6HR MIN TEMP:  68; 6HR MAX TEMP:  71;

MORRIS*        CLEAR     68  67  97 CALM      30.21R FOG
ROMEOVILLE*    CLEAR     69  69 100 NE5       30.23R
$$

LMZ740>746-291300-
SOUTHERN LAKE MICHIGAN

STATION/POSITION SKY/WX   TEMP    WIND        PRES    VSBY  WAVE
                          AIR SEA DIR/SP/G                  HT/PER
                          (F)     (DEG/KT/KT) (MB)    (MI)  (FT/S)
SOUTHERN BUOY              73 75   40/  6/  8 1023.0          0
WILMETTE HARBOR            73 72   50/  4/  8   N/A           1/ 3
HARRISON CRIB              74      30/ 10/ 11   N/A
BURNHAM HARBOR             72      10/  6/  7   N/A
CALUMET HARBOR             72      10/  5/  7 1022.3R
BURNS HARBOR               70      90/  8/  9 1023.0S
MICHIGAN CITY              69      40/  9/ 10   N/A
MICHIGAN CITY 6N           74 76   40/  8/ 10   N/A           1/ 3
ST. JOSEPH                 71 75   50/  6/  8 1023.0R         1
$$

ILZ025>027-034>036-040-047-049-050-058-095>099-291300-
WEST-CENTRAL ILLINOIS

CITY           SKY/WX    TMP DP  RH WIND       PRES   REMARKS
QUINCY         CLEAR     71  71 100 E6        30.17R FOG
GALESBURG*     CLOUDY    68  68  98 CALM      30.21R THUNDER FOG
MACOMB*        MOCLDY    68  68 100 NE5       30.21R FOG
JACKSONVILLE*  CLEAR     69  68  97 CALM      30.18R FOG
PITTSFIELD*    FOG       70  70 100 CALM      30.19R VSB 1/2
$$

ILZ028>032-037-038-041>044-048-051>054-059>061-291300-
CENTRAL ILLINOIS

CITY           SKY/WX    TMP DP  RH WIND       PRES   REMARKS
PONTIAC        CLEAR     69  69 100 CALM      30.21R FOG
BLOOMINGTON    CLEAR     67  66  97 N3        30.21R
DECATUR        CLEAR     69  67  93 NE3       30.20R FOG
PEORIA         CLEAR     69  69 100 VRB3      30.20R
6HR MIN TEMP:  69; 6HR MAX TEMP:  72;

LACON*         CLOUDY    69  68  97 CALM      30.21R FOG
LINCOLN*       CLEAR     70  70 100 CALM      30.19R FOG
SPRINGFIELD    CLEAR     72  70  93 NE5       30.18R FOG
6HR MIN TEMP:  71; 6HR MAX TEMP:  74;

TAYLORVILLE    NOT AVBL
$$

ILZ033-039-045-046-055>057-062-063-291300-
EAST-CENTRAL ILLINOIS

CITY           SKY/WX    TMP DP  RH WIND       PRES   REMARKS
CHAMPAIGN      CLEAR     69  68  96 E6        30.21R FOG
RANTOUL*       CLEAR     71  70  97 CALM      30.21R
MATTOON        CLEAR     69  67  93 CALM      30.18R FOG
PARIS*         CLEAR     68  68 100 CALM      30.21R FOG
$$

ILZ079-100>102-291300-
SOUTHWEST ILLINOIS

CITY           SKY/WX    TMP DP  RH WIND       PRES   REMARKS
ALTON          CLEAR     70  70 100 CALM      30.17R FOG
BELLEVILLE     CLEAR     72  72 100 NE2       30.15R
CAHOKIA*       CLEAR     73  70  90 CALM      30.15R
SPARTA*        CLEAR     71  71  99 NE6       30.17R FOG
$$

ILZ064>066-069>071-074>076-080>082-084>086-088>090-092>094-291300-
SOUTH-CENTRAL ILLINOIS

CITY           SKY/WX    TMP DP  RH WIND       PRES   REMARKS
CARBONDALE     PTCLDY    71  70  96 E5        30.16R FOG
6HR MIN TEMP:  69; 6HR MAX TEMP:  75;

EFFINGHAM*     PTCLDY    70  70 100 CALM      30.20R
MARION         PTCLDY    75  73  94 SE7       30.17R
MT. VERNON     CLEAR     70  64  83 N5        30.18R
CENTRALIA*     CLEAR     71  70  97 E3        30.16R
SALEM*         CLEAR     73  69  88 E3        30.18R
METROPOLIS*    CLEAR     73  72  98 CALM      30.15R FOG
$$

ILZ067-068-072-073-078-083-087-091-291300-
SOUTHEAST ILLINOIS

CITY           SKY/WX    TMP DP  RH WIND       PRES   REMARKS
LAWRENCEVILLE  CLEAR     71  70  96 CALM      30.19R FOG
FLORA*         CLEAR     71  69  92 CALM      30.19R
FAIRFIELD*     CLEAR     70  70  99 CALM      30.17R
HARRISBURG*    CLEAR     72  72  98 CALM      30.16R
ROBINSON*      FOG       65  65 100 CALM      30.17  VSB 1/2
CARMI*         CLEAR     70  70 100 CALM      30.16R FOG
$$

ABBREVIATIONS USED IN REMARKS
   TC - TEMPERATURE IN CELSIUS
  WCI - WIND CHILL INDEX
   HX - HEAT INDEX
  VSB - VISIBILITY
$$





USA.gov is the U.S. government's official web portal to all federal, state and local government web resources and services.